Location: Saint-Maurice-d�Ard�che
(44.5216°N, 4.4002°E)
Time: 02:24:16
(UTC+00:00)

STARLINK-1243 - Pass Details

Date: 30 March 2020
Orbit: 549 x 550 km, 53.0° (Epoch: 02 June)

Event Time Altitude Azimuth Distance (km) Brightness Sun altitude
Rises 18:25:35 0° 228° (SW) 2,714 7.8 -4.0°
Reaches altitude 10° 18:27:49 10° 226° (SW) 1,823 6.8 -4.4°
Maximum altitude 18:31:56 70° 143° (SE) 591 3.6 -5.1°
Drops below altitude 10° 18:36:05 10° 60° (ENE) 1,834 5.8 -5.8°
Enters shadow 18:38:33 -1° 58° (ENE) 2,816 6.8 -6.2°
